GFSNE_prec_precacc24_318.txt.gz
Total_Precipitation_Accumulation
0.00 0.00 0.00 0.00 0.00 0.00 0.00 0.01 0.02 0.01 0.00 0.00 0.00 0.00 0.00 0.00 0.00 0.00 0.00 0.00 0.00 0.00 0.00 0.01 0.02 0.03 0.04 0.05 0.07 0.10 0.13 0.14 0.15 0.20 0.22 0.22 0.22 0.24
0.00 0.00 0.00 0.00 0.00 0.00 0.00 0.00 0.01 0.01 0.01 0.00 0.00 0.00 0.00 0.00 0.00 0.00 0.00 0.00 0.00 0.01 0.02 0.01 0.02 0.02 0.03 0.04 0.07 0.09 0.12 0.14 0.17 0.24 0.29 0.38 0.44 0.45
0.00 0.00 0.00 0.00 0.00 0.00 0.00 0.00 0.00 0.01 0.01 0.00 0.00 0.00 0.00 0.00 0.00 0.01 0.01 0.01 0.00 0.01 0.02 0.03 0.05 0.05 0.06 0.07 0.12 0.15 0.18 0.22 0.33 0.46 0.57 0.68 0.68 0.65
0.00 0.00 0.00 0.00 0.00 0.00 0.00 0.00 0.00 0.01 0.01 0.00 0.00 0.00 0.00 0.00 0.01 0.02 0.02 0.03 0.03 0.05 0.07 0.09 0.10 0.10 0.11 0.14 0.19 0.25 0.31 0.34 0.44 0.52 0.74 0.83 0.70 0.57
0.00 0.00 0.00 0.00 0.00 0.00 0.00 0.00 0.00 0.01 0.01 0.02 0.01 0.01 0.01 0.02 0.04 0.09 0.10 0.10 0.08 0.10 0.12 0.14 0.16 0.17 0.19 0.25 0.37 0.47 0.50 0.60 0.71 0.90 0.68 0.65 0.54 0.47
0.00 0.00 0.00 0.00 0.00 0.00 0.00 0.00 0.00 0.01 0.01 0.02 0.02 0.02 0.04 0.04 0.07 0.10 0.11 0.12 0.10 0.10 0.17 0.26 0.31 0.30 0.27 0.25 0.30 0.41 0.48 0.61 0.89 0.90 0.78 0.87 0.74 0.73
0.00 0.00 0.00 0.00 0.00 0.00 0.00 0.00 0.01 0.01 0.01 0.02 0.02 0.03 0.06 0.06 0.06 0.08 0.14 0.18 0.24 0.25 0.27 0.35 0.28 0.25 0.24 0.30 0.34 0.35 0.40 0.70 0.78 0.70 0.82 1.47 1.48 1.31
0.00 0.00 0.00 0.00 0.00 0.00 0.00 0.00 0.02 0.02 0.02 0.03 0.04 0.06 0.07 0.06 0.06 0.13 0.22 0.29 0.34 0.29 0.30 0.35 0.31 0.30 0.24 0.28 0.37 0.52 0.93 0.81 0.67 0.73 0.80 0.93 1.07 1.09
0.00 0.00 0.00 0.00 0.00 0.00 0.00 0.00 0.01 0.02 0.03 0.04 0.05 0.06 0.09 0.12 0.16 0.23 0.32 0.40 0.48 0.41 0.53 0.58 0.47 0.36 0.36 0.46 0.57 0.75 0.90 0.78 0.61 0.53 0.52 0.53 0.54 0.39
0.00 0.00 0.00 0.00 0.00 0.00 0.00 0.00 0.01 0.01 0.01 0.01 0.03 0.07 0.10 0.15 0.25 0.36 0.43 0.49 0.50 0.45 0.44 0.48 0.36 0.34 0.53 0.65 0.79 0.80 0.79 0.47 0.37 0.37 0.31 0.22 0.15 0.05
0.00 0.00 0.00 0.00 0.00 0.00 0.01 0.00 0.00 0.01 0.05 0.08 0.07 0.15 0.26 0.37 0.39 0.41 0.39 0.47 0.43 0.32 0.26 0.30 0.30 0.45 0.63 0.56 0.50 0.72 0.74 0.41 0.29 0.29 0.22 0.12 0.06 0.02
0.00 0.00 0.00 0.00 0.00 0.01 0.01 0.00 0.00 0.03 0.04 0.07 0.11 0.16 0.18 0.24 0.31 0.30 0.34 0.45 0.40 0.34 0.19 0.31 0.24 0.33 0.46 0.52 0.45 0.49 0.40 0.37 0.23 0.17 0.12 0.08 0.03 0.00
0.00 0.00 0.00 0.01 0.01 0.01 0.02 0.01 0.03 0.05 0.06 0.06 0.09 0.12 0.12 0.14 0.17 0.18 0.22 0.39 0.49 0.36 0.25 0.44 0.27 0.29 0.31 0.28 0.31 0.40 0.36 0.26 0.14 0.12 0.09 0.05 0.02 0.00
0.00 0.00 0.00 0.01 0.01 0.02 0.02 0.03 0.05 0.07 0.06 0.08 0.10 0.08 0.09 0.11 0.11 0.11 0.14 0.22 0.32 0.37 0.27 0.42 0.40 0.32 0.30 0.22 0.26 0.39 0.46 0.31 0.14 0.08 0.04 0.04 0.01 0.00
0.00 0.00 0.00 0.01 0.01 0.01 0.02 0.05 0.06 0.06 0.08 0.10 0.08 0.08 0.07 0.07 0.07 0.06 0.06 0.11 0.13 0.18 0.27 0.34 0.37 0.33 0.30 0.21 0.17 0.27 0.35 0.42 0.21 0.07 0.03 0.00 0.00 0.00
0.00 0.01 0.01 0.01 0.02 0.03 0.05 0.06 0.05 0.10 0.12 0.12 0.11 0.10 0.08 0.09 0.10 0.10 0.09 0.10 0.10 0.11 0.17 0.26 0.30 0.30 0.26 0.20 0.20 0.28 0.22 0.20 0.21 0.09 0.04 0.02 0.00 0.00
0.01 0.00 0.00 0.01 0.02 0.05 0.08 0.11 0.13 0.17 0.17 0.14 0.14 0.13 0.12 0.12 0.09 0.09 0.09 0.08 0.09 0.09 0.12 0.23 0.28 0.26 0.25 0.26 0.26 0.21 0.16 0.14 0.14 0.08 0.03 0.02 0.00 0.00
0.01 0.01 0.01 0.05 0.09 0.12 0.16 0.20 0.22 0.21 0.17 0.18 0.16 0.14 0.15 0.13 0.10 0.07 0.08 0.07 0.07 0.07 0.11 0.21 0.26 0.22 0.20 0.22 0.18 0.20 0.21 0.16 0.18 0.10 0.03 0.01 0.01 0.00
0.01 0.02 0.04 0.07 0.13 0.16 0.19 0.22 0.23 0.19 0.17 0.17 0.17 0.17 0.16 0.11 0.10 0.09 0.07 0.05 0.06 0.07 0.10 0.16 0.22 0.21 0.16 0.15 0.21 0.22 0.15 0.17 0.13 0.13 0.08 0.01 0.00 0.00
0.01 0.02 0.06 0.11 0.16 0.19 0.20 0.23 0.22 0.20 0.16 0.15 0.16 0.15 0.14 0.12 0.09 0.08 0.07 0.06 0.05 0.06 0.08 0.12 0.16 0.18 0.17 0.16 0.16 0.25 0.23 0.13 0.09 0.08 0.06 0.01 0.01 0.02
0.00 0.01 0.08 0.15 0.20 0.23 0.24 0.25 0.24 0.22 0.18 0.16 0.14 0.14 0.13 0.12 0.09 0.08 0.06 0.06 0.06 0.06 0.07 0.10 0.16 0.17 0.18 0.15 0.12 0.19 0.27 0.22 0.11 0.04 0.02 0.01 0.02 0.02
0.00 0.01 0.05 0.12 0.17 0.21 0.26 0.26 0.26 0.20 0.16 0.13 0.13 0.13 0.12 0.12 0.11 0.08 0.07 0.06 0.05 0.05 0.05 0.07 0.08 0.11 0.11 0.10 0.13 0.15 0.22 0.25 0.20 0.08 0.03 0.01 0.01 0.01
0.02 0.04 0.08 0.13 0.17 0.21 0.25 0.27 0.25 0.18 0.15 0.14 0.14 0.14 0.13 0.11 0.10 0.08 0.06 0.05 0.04 0.05 0.06 0.06 0.07 0.09 0.11 0.13 0.13 0.16 0.17 0.18 0.16 0.09 0.07 0.02 0.00 0.00

GFSNE_prec_precacc24_321.txt.gz
Total_Precipitation_Accumulation
0.00 0.00 0.00 0.00 0.00 0.00 0.00 0.01 0.02 0.01 0.00 0.00 0.00 0.00 0.00 0.00 0.00 0.00 0.00 0.00 0.00 0.00 0.00 0.01 0.02 0.03 0.03 0.04 0.05 0.09 0.13 0.15 0.16 0.22 0.25 0.26 0.26 0.28
0.00 0.00 0.00 0.00 0.00 0.00 0.00 0.00 0.01 0.01 0.00 0.00 0.00 0.00 0.00 0.00 0.00 0.00 0.00 0.00 0.00 0.01 0.02 0.01 0.02 0.02 0.03 0.03 0.05 0.08 0.12 0.15 0.19 0.26 0.32 0.41 0.48 0.50
0.00 0.00 0.00 0.00 0.00 0.00 0.00 0.00 0.00 0.00 0.00 0.00 0.00 0.00 0.00 0.00 0.00 0.00 0.00 0.00 0.00 0.01 0.02 0.03 0.05 0.05 0.05 0.06 0.09 0.13 0.18 0.23 0.36 0.50 0.61 0.72 0.73 0.71
0.00 0.00 0.00 0.00 0.00 0.00 0.00 0.00 0.00 0.00 0.01 0.00 0.00 0.00 0.00 0.00 0.00 0.00 0.00 0.01 0.02 0.04 0.06 0.08 0.10 0.10 0.11 0.13 0.16 0.24 0.31 0.36 0.47 0.56 0.77 0.86 0.81 0.63
0.00 0.00 0.00 0.00 0.00 0.00 0.00 0.00 0.00 0.00 0.00 0.00 0.00 0.00 0.00 0.00 0.01 0.01 0.01 0.01 0.02 0.06 0.11 0.13 0.15 0.17 0.19 0.24 0.33 0.44 0.48 0.63 0.76 0.93 0.71 0.73 0.74 0.55
0.00 0.00 0.00 0.00 0.00 0.00 0.00 0.00 0.00 0.00 0.00 0.00 0.00 0.00 0.00 0.00 0.01 0.01 0.01 0.04 0.06 0.08 0.15 0.23 0.28 0.29 0.26 0.23 0.26 0.32 0.38 0.58 0.90 0.93 0.83 0.99 0.96 0.91
0.00 0.00 0.00 0.00 0.00 0.00 0.00 0.00 0.00 0.00 0.00 0.00 0.00 0.00 0.00 0.00 0.01 0.02 0.05 0.05 0.09 0.14 0.19 0.31 0.26 0.24 0.23 0.23 0.25 0.28 0.36 0.67 0.78 0.72 0.86 1.54 1.62 1.60
0.00 0.00 0.00 0.00 0.00 0.00 0.00 0.00 0.01 0.02 0.01 0.01 0.01 0.02 0.01 0.01 0.02 0.06 0.07 0.09 0.13 0.14 0.19 0.30 0.29 0.29 0.24 0.28 0.35 0.48 0.95 0.84 0.68 0.73 0.80 0.94 1.10 1.17
0.00 0.00 0.00 0.00 0.00 0.00 0.00 0.00 0.01 0.01 0.02 0.01 0.01 0.01 0.01 0.03 0.06 0.07 0.11 0.16 0.24 0.27 0.42 0.52 0.46 0.36 0.35 0.41 0.52 0.78 0.99 0.79 0.62 0.54 0.53 0.53 0.54 0.40
0.00 0.00 0.00 0.00 0.00 0.00 0.00 0.00 0.00 0.00 0.00 0.00 0.00 0.00 0.02 0.02 0.04 0.08 0.11 0.19 0.29 0.36 0.40 0.47 0.35 0.29 0.45 0.56 0.70 0.78 0.83 0.48 0.38 0.38 0.31 0.22 0.15 0.05
0.00 0.00 0.00 0.00 0.00 0.00 0.01 0.00 0.00 0.00 0.00 0.02 0.03 0.05 0.07 0.10 0.11 0.15 0.19 0.33 0.35 0.29 0.26 0.30 0.29 0.38 0.48 0.47 0.43 0.66 0.74 0.44 0.30 0.30 0.22 0.12 0.06 0.02
0.00 0.00 0.00 0.00 0.00 0.00 0.01 0.00 0.00 0.00 0.00 0.01 0.02 0.04 0.06 0.09 0.14 0.17 0.27 0.42 0.40 0.34 0.18 0.32 0.23 0.30 0.38 0.43 0.38 0.43 0.39 0.37 0.24 0.19 0.13 0.08 0.03 0.00
0.00 0.00 0.00 0.00 0.00 0.00 0.01 0.01 0.01 0.01 0.02 0.02 0.02 0.03 0.03 0.06 0.10 0.13 0.19 0.39 0.49 0.37 0.25 0.48 0.28 0.26 0.30 0.25 0.27 0.33 0.32 0.26 0.14 0.12 0.10 0.05 0.02 0.00
0.00 0.00 0.00 0.00 0.00 0.00 0.01 0.02 0.04 0.05 0.04 0.04 0.05 0.05 0.06 0.09 0.10 0.11 0.14 0.21 0.32 0.36 0.25 0.42 0.42 0.33 0.32 0.22 0.23 0.34 0.41 0.30 0.14 0.08 0.04 0.04 0.01 0.00
0.00 0.00 0.00 0.00 0.00 0.00 0.01 0.03 0.05 0.05 0.07 0.10 0.08 0.08 0.07 0.07 0.07 0.06 0.06 0.11 0.12 0.16 0.23 0.32 0.38 0.33 0.32 0.23 0.17 0.23 0.30 0.40 0.21 0.07 0.03 0.00 0.00 0.00
0.00 0.00 0.00 0.00 0.00 0.01 0.02 0.04 0.04 0.09 0.12 0.12 0.11 0.10 0.08 0.09 0.10 0.10 0.09 0.09 0.09 0.09 0.14 0.22 0.24 0.24 0.23 0.18 0.17 0.21 0.18 0.19 0.21 0.09 0.04 0.02 0.00 0.00
0.00 0.00 0.00 0.00 0.00 0.01 0.04 0.08 0.11 0.16 0.17 0.14 0.14 0.13 0.12 0.12 0.09 0.09 0.09 0.08 0.08 0.08 0.09 0.16 0.19 0.18 0.20 0.21 0.21 0.18 0.14 0.13 0.13 0.08 0.03 0.02 0.00 0.00
0.01 0.00 0.00 0.00 0.01 0.02 0.06 0.12 0.18 0.19 0.17 0.18 0.16 0.14 0.15 0.13 0.10 0.07 0.08 0.06 0.06 0.06 0.08 0.16 0.19 0.16 0.16 0.18 0.15 0.17 0.19 0.16 0.18 0.10 0.03 0.01 0.01 0.00
0.01 0.01 0.01 0.01 0.01 0.02 0.04 0.11 0.16 0.16 0.17 0.17 0.18 0.17 0.16 0.11 0.10 0.09 0.07 0.05 0.05 0.06 0.08 0.11 0.16 0.16 0.14 0.13 0.17 0.20 0.15 0.18 0.14 0.14 0.08 0.01 0.00 0.00
0.00 0.01 0.01 0.01 0.01 0.02 0.05 0.12 0.16 0.17 0.16 0.15 0.16 0.15 0.14 0.12 0.09 0.08 0.07 0.06 0.05 0.05 0.06 0.09 0.13 0.15 0.15 0.14 0.15 0.25 0.24 0.15 0.10 0.08 0.06 0.01 0.01 0.02
0.00 0.00 0.00 0.01 0.02 0.06 0.11 0.16 0.18 0.19 0.17 0.16 0.15 0.14 0.13 0.12 0.09 0.08 0.06 0.05 0.05 0.04 0.05 0.07 0.13 0.15 0.16 0.15 0.12 0.20 0.28 0.23 0.13 0.05 0.03 0.02 0.02 0.02
0.00 0.01 0.01 0.02 0.04 0.08 0.14 0.17 0.20 0.18 0.16 0.13 0.13 0.14 0.13 0.12 0.11 0.08 0.07 0.06 0.05 0.04 0.05 0.07 0.08 0.11 0.12 0.11 0.14 0.15 0.22 0.26 0.22 0.09 0.03 0.01 0.01 0.01
0.02 0.02 0.03 0.05 0.07 0.12 0.17 0.19 0.20 0.16 0.15 0.14 0.14 0.14 0.13 0.12 0.10 0.09 0.07 0.05 0.04 0.05 0.06 0.05 0.07 0.09 0.11 0.14 0.14 0.17 0.17 0.20 0.18 0.10 0.07 0.02 0.00 0.00

GFSNE_prec_precacc24_324.txt.gz
Total_Precipitation_Accumulation
0.00 0.00 0.00 0.00 0.00 0.00 0.00 0.00 0.00 0.00 0.00 0.00 0.00 0.00 0.00 0.00 0.00 0.00 0.00 0.00 0.00 0.00 0.00 0.01 0.02 0.03 0.03 0.04 0.05 0.08 0.12 0.16 0.19 0.27 0.29 0.29 0.28 0.31
0.00 0.00 0.00 0.00 0.00 0.00 0.00 0.00 0.00 0.00 0.00 0.00 0.00 0.00 0.00 0.00 0.00 0.00 0.00 0.00 0.00 0.00 0.01 0.01 0.01 0.02 0.03 0.03 0.04 0.07 0.11 0.16 0.23 0.32 0.35 0.43 0.51 0.53
0.00 0.00 0.00 0.00 0.00 0.00 0.00 0.00 0.00 0.00 0.00 0.00 0.00 0.00 0.00 0.00 0.00 0.00 0.00 0.00 0.00 0.00 0.01 0.02 0.03 0.03 0.04 0.05 0.07 0.11 0.15 0.23 0.40 0.56 0.62 0.73 0.75 0.75
0.00 0.00 0.00 0.00 0.00 0.00 0.00 0.00 0.00 0.00 0.00 0.00 0.00 0.00 0.00 0.00 0.00 0.00 0.00 0.00 0.00 0.00 0.02 0.04 0.04 0.06 0.08 0.10 0.12 0.17 0.24 0.34 0.53 0.59 0.78 0.87 0.82 0.66
0.00 0.00 0.00 0.00 0.00 0.00 0.00 0.00 0.00 0.00 0.00 0.00 0.00 0.00 0.00 0.00 0.00 0.00 0.00 0.00 0.00 0.00 0.02 0.04 0.06 0.11 0.16 0.21 0.28 0.36 0.42 0.60 0.74 0.90 0.72 0.74 0.75 0.59
0.00 0.00 0.00 0.00 0.00 0.00 0.00 0.00 0.00 0.00 0.00 0.00 0.00 0.00 0.00 0.00 0.00 0.00 0.00 0.00 0.00 0.01 0.02 0.03 0.10 0.17 0.20 0.20 0.23 0.29 0.35 0.54 0.83 0.85 0.80 1.00 0.97 0.94
0.00 0.00 0.00 0.00 0.00 0.00 0.00 0.00 0.00 0.00 0.00 0.00 0.00 0.00 0.00 0.00 0.00 0.01 0.01 0.00 0.00 0.01 0.04 0.07 0.06 0.08 0.13 0.19 0.21 0.26 0.40 0.67 0.72 0.64 0.82 1.54 1.63 1.62
0.00 0.00 0.00 0.00 0.00 0.00 0.00 0.00 0.01 0.01 0.01 0.01 0.01 0.00 0.00 0.00 0.01 0.02 0.03 0.04 0.03 0.02 0.05 0.07 0.10 0.16 0.18 0.23 0.31 0.40 0.78 0.73 0.62 0.68 0.78 0.94 1.10 1.18
0.00 0.00 0.00 0.00 0.00 0.00 0.00 0.00 0.00 0.01 0.01 0.01 0.00 0.00 0.00 0.01 0.02 0.02 0.04 0.05 0.07 0.06 0.12 0.19 0.20 0.21 0.27 0.34 0.43 0.73 0.98 0.76 0.59 0.52 0.53 0.54 0.54 0.40
0.01 0.01 0.01 0.01 0.00 0.00 0.00 0.00 0.00 0.00 0.00 0.00 0.00 0.00 0.01 0.01 0.02 0.05 0.04 0.04 0.06 0.08 0.12 0.22 0.20 0.22 0.40 0.48 0.60 0.72 0.80 0.47 0.36 0.37 0.32 0.22 0.15 0.05
0.01 0.01 0.02 0.01 0.01 0.00 0.00 0.00 0.00 0.00 0.00 0.00 0.01 0.02 0.04 0.06 0.06 0.07 0.05 0.13 0.13 0.09 0.12 0.22 0.22 0.33 0.41 0.37 0.39 0.60 0.70 0.41 0.30 0.31 0.22 0.12 0.06 0.02
0.02 0.02 0.01 0.00 0.00 0.00 0.00 0.00 0.00 0.00 0.00 0.00 0.01 0.02 0.03 0.06 0.10 0.10 0.16 0.31 0.29 0.26 0.14 0.32 0.21 0.29 0.33 0.34 0.33 0.40 0.37 0.37 0.24 0.19 0.13 0.08 0.03 0.00
0.01 0.01 0.00 0.00 0.00 0.00 0.00 0.00 0.00 0.01 0.01 0.01 0.01 0.02 0.02 0.04 0.07 0.09 0.14 0.34 0.46 0.36 0.23 0.48 0.27 0.26 0.30 0.23 0.23 0.30 0.30 0.25 0.14 0.12 0.09 0.05 0.02 0.00
0.01 0.00 0.00 0.00 0.00 0.00 0.00 0.01 0.02 0.03 0.02 0.02 0.04 0.04 0.06 0.08 0.09 0.09 0.12 0.20 0.32 0.36 0.23 0.42 0.43 0.34 0.33 0.21 0.22 0.30 0.37 0.27 0.14 0.08 0.04 0.04 0.01 0.00
0.01 0.00 0.00 0.00 0.00 0.00 0.00 0.01 0.01 0.01 0.02 0.05 0.06 0.06 0.07 0.07 0.07 0.06 0.06 0.11 0.12 0.16 0.22 0.30 0.38 0.33 0.33 0.24 0.18 0.20 0.28 0.36 0.20 0.07 0.03 0.00 0.00 0.00
0.00 0.00 0.00 0.00 0.00 0.00 0.00 0.00 0.00 0.01 0.04 0.06 0.08 0.07 0.08 0.09 0.10 0.10 0.09 0.09 0.09 0.08 0.12 0.18 0.21 0.23 0.21 0.16 0.15 0.16 0.16 0.18 0.20 0.10 0.04 0.02 0.00 0.00
0.00 0.00 0.00 0.00 0.00 0.00 0.00 0.00 0.00 0.01 0.05 0.07 0.09 0.09 0.10 0.12 0.09 0.09 0.09 0.08 0.08 0.07 0.07 0.11 0.15 0.15 0.16 0.16 0.16 0.16 0.13 0.12 0.13 0.09 0.03 0.02 0.00 0.00
0.00 0.00 0.00 0.00 0.00 0.00 0.00 0.01 0.00 0.02 0.04 0.10 0.10 0.10 0.13 0.13 0.10 0.07 0.08 0.06 0.06 0.05 0.07 0.12 0.14 0.13 0.12 0.13 0.13 0.15 0.16 0.15 0.17 0.11 0.03 0.01 0.01 0.00
0.00 0.01 0.01 0.01 0.00 0.00 0.01 0.01 0.02 0.02 0.06 0.11 0.14 0.14 0.15 0.11 0.10 0.08 0.07 0.05 0.05 0.05 0.06 0.08 0.12 0.14 0.12 0.11 0.14 0.16 0.13 0.16 0.14 0.15 0.09 0.01 0.00 0.00
0.01 0.01 0.01 0.00 0.00 0.01 0.01 0.02 0.04 0.06 0.07 0.10 0.12 0.13 0.14 0.12 0.09 0.08 0.07 0.06 0.06 0.05 0.05 0.07 0.10 0.12 0.13 0.13 0.13 0.19 0.21 0.15 0.12 0.10 0.07 0.01 0.01 0.02
0.00 0.00 0.00 0.01 0.01 0.02 0.02 0.04 0.07 0.10 0.10 0.11 0.11 0.13 0.13 0.13 0.09 0.08 0.06 0.05 0.05 0.04 0.04 0.05 0.09 0.11 0.12 0.12 0.12 0.18 0.28 0.23 0.15 0.07 0.04 0.02 0.02 0.02
0.00 0.00 0.00 0.01 0.02 0.04 0.05 0.07 0.10 0.10 0.10 0.10 0.11 0.13 0.13 0.12 0.12 0.09 0.07 0.06 0.04 0.04 0.04 0.05 0.07 0.10 0.11 0.11 0.13 0.15 0.22 0.26 0.23 0.11 0.03 0.01 0.01 0.01
0.00 0.00 0.00 0.01 0.02 0.04 0.07 0.10 0.12 0.10 0.11 0.12 0.13 0.14 0.13 0.12 0.10 0.09 0.07 0.05 0.04 0.05 0.05 0.05 0.07 0.08 0.11 0.14 0.14 0.18 0.18 0.20 0.19 0.11 0.08 0.03 0.00 0.00

GFSNE_prec_precacc24_327.txt.gz
Total_Precipitation_Accumulation
0.00 0.00 0.00 0.00 0.00 0.00 0.00 0.00 0.00 0.00 0.00 0.00 0.00 0.00 0.00 0.00 0.00 0.00 0.00 0.00 0.00 0.00 0.00 0.00 0.00 0.00 0.01 0.02 0.03 0.06 0.07 0.09 0.17 0.31 0.31 0.29 0.30 0.33
0.00 0.00 0.00 0.00 0.00 0.00 0.00 0.00 0.00 0.00 0.00 0.00 0.00 0.00 0.00 0.00 0.00 0.00 0.00 0.00 0.00 0.00 0.00 0.00 0.00 0.00 0.00 0.01 0.03 0.05 0.08 0.12 0.21 0.33 0.35 0.43 0.52 0.55
0.00 0.00 0.00 0.00 0.00 0.00 0.00 0.00 0.00 0.00 0.00 0.00 0.00 0.00 0.00 0.00 0.00 0.00 0.00 0.00 0.00 0.00 0.00 0.00 0.01 0.01 0.01 0.02 0.03 0.05 0.09 0.14 0.25 0.47 0.60 0.73 0.76 0.76
0.00 0.00 0.00 0.00 0.00 0.00 0.00 0.00 0.00 0.00 0.00 0.00 0.00 0.00 0.00 0.00 0.00 0.00 0.00 0.00 0.00 0.00 0.00 0.00 0.01 0.01 0.01 0.02 0.04 0.08 0.15 0.18 0.27 0.43 0.72 0.86 0.83 0.66
0.00 0.00 0.00 0.00 0.00 0.00 0.00 0.00 0.00 0.00 0.00 0.00 0.00 0.00 0.00 0.00 0.00 0.00 0.00 0.00 0.00 0.00 0.00 0.00 0.00 0.01 0.01 0.04 0.10 0.18 0.25 0.27 0.36 0.68 0.62 0.72 0.75 0.59
0.00 0.00 0.00 0.00 0.00 0.00 0.00 0.00 0.00 0.00 0.00 0.00 0.00 0.00 0.00 0.00 0.00 0.00 0.00 0.00 0.00 0.00 0.00 0.00 0.01 0.01 0.02 0.05 0.10 0.15 0.22 0.24 0.43 0.63 0.65 0.93 0.95 0.94
0.00 0.00 0.00 0.00 0.00 0.00 0.00 0.00 0.00 0.00 0.00 0.00 0.00 0.00 0.00 0.00 0.00 0.01 0.01 0.00 0.00 0.00 0.00 0.00 0.00 0.00 0.03 0.10 0.13 0.19 0.32 0.43 0.43 0.49 0.73 1.46 1.59 1.61
0.00 0.00 0.00 0.00 0.00 0.00 0.00 0.00 0.00 0.00 0.00 0.00 0.00 0.00 0.00 0.00 0.01 0.02 0.03 0.03 0.02 0.01 0.01 0.01 0.01 0.03 0.05 0.11 0.22 0.32 0.68 0.59 0.48 0.56 0.69 0.88 1.07 1.17
0.00 0.00 0.00 0.00 0.00 0.00 0.00 0.00 0.00 0.00 0.00 0.00 0.00 0.00 0.00 0.00 0.01 0.01 0.03 0.04 0.04 0.01 0.03 0.03 0.02 0.04 0.11 0.22 0.34 0.65 0.90 0.58 0.44 0.46 0.47 0.51 0.54 0.40
0.01 0.01 0.02 0.02 0.01 0.01 0.01 0.01 0.02 0.01 0.00 0.00 0.00 0.00 0.00 0.00 0.01 0.04 0.04 0.03 0.02 0.02 0.06 0.10 0.06 0.11 0.29 0.36 0.47 0.62 0.71 0.44 0.33 0.32 0.30 0.22 0.15 0.05
0.08 0.06 0.06 0.05 0.03 0.03 0.02 0.02 0.01 0.00 0.00 0.00 0.00 0.01 0.02 0.04 0.05 0.07 0.04 0.10 0.08 0.03 0.06 0.16 0.13 0.24 0.31 0.30 0.35 0.53 0.65 0.39 0.30 0.30 0.21 0.12 0.06 0.02
0.12 0.08 0.08 0.04 0.02 0.01 0.01 0.00 0.00 0.00 0.00 0.00 0.00 0.01 0.01 0.03 0.07 0.08 0.14 0.27 0.24 0.20 0.09 0.30 0.16 0.26 0.29 0.27 0.29 0.37 0.35 0.36 0.24 0.18 0.13 0.08 0.03 0.00
0.03 0.02 0.02 0.03 0.02 0.01 0.00 0.01 0.01 0.01 0.00 0.00 0.00 0.01 0.01 0.02 0.04 0.07 0.12 0.30 0.39 0.29 0.17 0.48 0.25 0.25 0.30 0.22 0.20 0.26 0.29 0.24 0.14 0.12 0.09 0.05 0.02 0.00
0.03 0.01 0.01 0.03 0.01 0.01 0.00 0.00 0.01 0.01 0.01 0.01 0.00 0.01 0.01 0.02 0.03 0.07 0.10 0.16 0.27 0.32 0.18 0.39 0.43 0.35 0.34 0.21 0.20 0.26 0.33 0.24 0.14 0.08 0.04 0.04 0.01 0.00
0.01 0.01 0.00 0.01 0.00 0.00 0.00 0.00 0.01 0.01 0.01 0.01 0.01 0.01 0.01 0.02 0.04 0.05 0.05 0.10 0.12 0.15 0.21 0.28 0.37 0.33 0.34 0.25 0.18 0.19 0.25 0.31 0.19 0.07 0.03 0.00 0.00 0.00
0.01 0.01 0.00 0.00 0.00 0.00 0.00 0.00 0.01 0.01 0.01 0.01 0.01 0.01 0.02 0.03 0.05 0.09 0.09 0.09 0.08 0.08 0.11 0.16 0.20 0.23 0.20 0.14 0.14 0.13 0.13 0.17 0.20 0.10 0.04 0.02 0.00 0.00
0.00 0.00 0.00 0.00 0.00 0.00 0.00 0.01 0.01 0.00 0.00 0.00 0.02 0.03 0.04 0.06 0.05 0.08 0.09 0.07 0.08 0.07 0.05 0.08 0.11 0.13 0.14 0.13 0.12 0.13 0.11 0.12 0.13 0.10 0.03 0.02 0.00 0.00
0.01 0.00 0.01 0.01 0.02 0.02 0.02 0.02 0.00 0.00 0.01 0.02 0.04 0.05 0.08 0.09 0.08 0.07 0.07 0.06 0.06 0.05 0.06 0.09 0.10 0.09 0.08 0.09 0.10 0.13 0.14 0.13 0.15 0.11 0.04 0.02 0.01 0.00
0.01 0.01 0.02 0.03 0.02 0.02 0.01 0.01 0.01 0.01 0.01 0.04 0.08 0.09 0.11 0.08 0.08 0.08 0.06 0.05 0.05 0.04 0.05 0.06 0.09 0.11 0.09 0.08 0.10 0.13 0.11 0.14 0.13 0.14 0.09 0.01 0.00 0.00
0.02 0.03 0.03 0.03 0.01 0.01 0.01 0.01 0.02 0.01 0.02 0.05 0.07 0.09 0.10 0.10 0.08 0.08 0.07 0.06 0.06 0.04 0.03 0.04 0.07 0.10 0.13 0.12 0.10 0.13 0.16 0.13 0.11 0.10 0.08 0.01 0.01 0.02
0.02 0.02 0.01 0.01 0.00 0.01 0.01 0.02 0.02 0.04 0.06 0.07 0.07 0.08 0.10 0.11 0.09 0.08 0.06 0.05 0.05 0.04 0.04 0.04 0.06 0.09 0.10 0.10 0.10 0.14 0.22 0.20 0.15 0.09 0.06 0.03 0.02 0.02
0.04 0.02 0.00 0.00 0.00 0.01 0.02 0.03 0.04 0.05 0.05 0.05 0.06 0.09 0.10 0.12 0.12 0.08 0.07 0.06 0.04 0.04 0.04 0.03 0.04 0.07 0.09 0.10 0.11 0.12 0.19 0.25 0.24 0.12 0.05 0.02 0.01 0.02
0.02 0.01 0.00 0.00 0.00 0.01 0.02 0.03 0.05 0.05 0.06 0.08 0.08 0.10 0.11 0.11 0.10 0.09 0.07 0.05 0.04 0.04 0.04 0.04 0.04 0.06 0.08 0.11 0.12 0.16 0.16 0.19 0.20 0.11 0.09 0.03 0.00 0.00

GFSNE_prec_precacc24_330.txt.gz
Total_Precipitation_Accumulation
0.00 0.00 0.00 0.00 0.00 0.00 0.00 0.00 0.00 0.00 0.00 0.00 0.00 0.00 0.00 0.00 0.00 0.00 0.00 0.00 0.00 0.00 0.00 0.00 0.00 0.00 0.00 0.01 0.01 0.04 0.08 0.09 0.12 0.19 0.16 0.16 0.25 0.32
0.00 0.00 0.00 0.00 0.00 0.00 0.00 0.00 0.00 0.00 0.00 0.00 0.00 0.00 0.00 0.00 0.00 0.00 0.00 0.00 0.00 0.00 0.00 0.00 0.00 0.00 0.00 0.01 0.01 0.03 0.07 0.11 0.16 0.20 0.17 0.20 0.40 0.53
0.00 0.00 0.00 0.00 0.00 0.00 0.00 0.00 0.00 0.00 0.00 0.00 0.00 0.00 0.00 0.00 0.00 0.00 0.00 0.00 0.00 0.00 0.00 0.00 0.00 0.00 0.00 0.01 0.02 0.04 0.09 0.10 0.16 0.18 0.17 0.23 0.49 0.72
0.00 0.00 0.00 0.00 0.00 0.00 0.00 0.00 0.00 0.00 0.00 0.00 0.00 0.00 0.00 0.00 0.00 0.00 0.00 0.00 0.00 0.00 0.00 0.00 0.00 0.01 0.01 0.01 0.03 0.05 0.11 0.12 0.17 0.15 0.19 0.24 0.60 0.59
0.00 0.00 0.00 0.00 0.00 0.00 0.00 0.00 0.00 0.00 0.00 0.00 0.00 0.00 0.00 0.00 0.00 0.00 0.00 0.00 0.00 0.00 0.00 0.00 0.00 0.00 0.00 0.02 0.03 0.07 0.16 0.19 0.18 0.23 0.12 0.29 0.57 0.47
0.00 0.00 0.00 0.00 0.00 0.00 0.00 0.00 0.00 0.00 0.00 0.00 0.00 0.00 0.00 0.00 0.00 0.00 0.00 0.00 0.00 0.00 0.00 0.00 0.01 0.00 0.01 0.02 0.04 0.09 0.21 0.19 0.24 0.21 0.24 0.53 0.71 0.85
0.00 0.00 0.00 0.00 0.00 0.00 0.00 0.00 0.00 0.00 0.00 0.00 0.00 0.00 0.00 0.00 0.00 0.00 0.00 0.00 0.00 0.00 0.00 0.00 0.00 0.00 0.01 0.04 0.08 0.15 0.28 0.35 0.27 0.31 0.47 1.17 1.41 1.56
0.00 0.00 0.00 0.00 0.00 0.00 0.00 0.00 0.00 0.00 0.00 0.00 0.00 0.01 0.01 0.00 0.00 0.00 0.01 0.02 0.02 0.01 0.01 0.00 0.01 0.01 0.02 0.07 0.14 0.26 0.59 0.48 0.33 0.42 0.55 0.77 0.99 1.13
0.00 0.00 0.00 0.00 0.00 0.00 0.00 0.01 0.01 0.01 0.01 0.02 0.01 0.01 0.00 0.00 0.00 0.01 0.02 0.04 0.04 0.01 0.03 0.02 0.01 0.01 0.08 0.18 0.31 0.59 0.83 0.52 0.35 0.37 0.38 0.38 0.46 0.37
0.02 0.01 0.02 0.02 0.02 0.02 0.02 0.04 0.05 0.05 0.02 0.01 0.00 0.00 0.00 0.00 0.01 0.03 0.04 0.02 0.01 0.01 0.04 0.08 0.03 0.08 0.26 0.27 0.39 0.54 0.63 0.39 0.30 0.26 0.21 0.18 0.13 0.05
0.17 0.11 0.07 0.06 0.07 0.09 0.08 0.09 0.09 0.04 0.01 0.00 0.00 0.00 0.00 0.01 0.02 0.03 0.03 0.06 0.05 0.02 0.05 0.15 0.10 0.18 0.23 0.22 0.28 0.45 0.58 0.36 0.27 0.22 0.17 0.11 0.06 0.02
0.20 0.16 0.16 0.11 0.12 0.12 0.08 0.04 0.04 0.02 0.00 0.00 0.00 0.00 0.00 0.00 0.01 0.02 0.07 0.18 0.14 0.14 0.05 0.27 0.12 0.22 0.23 0.17 0.21 0.33 0.33 0.34 0.21 0.16 0.12 0.07 0.03 0.00
0.11 0.09 0.08 0.12 0.09 0.07 0.05 0.03 0.02 0.01 0.00 0.00 0.00 0.00 0.00 0.00 0.00 0.01 0.04 0.19 0.26 0.17 0.08 0.43 0.21 0.22 0.29 0.18 0.16 0.22 0.26 0.22 0.13 0.10 0.09 0.05 0.02 0.00
0.07 0.05 0.07 0.17 0.12 0.08 0.06 0.01 0.00 0.00 0.01 0.01 0.01 0.00 0.00 0.00 0.00 0.01 0.02 0.07 0.14 0.19 0.08 0.30 0.36 0.31 0.34 0.21 0.19 0.22 0.30 0.21 0.10 0.07 0.04 0.04 0.01 0.00
0.02 0.04 0.08 0.13 0.10 0.06 0.02 0.00 0.00 0.01 0.01 0.02 0.02 0.02 0.01 0.00 0.01 0.01 0.01 0.03 0.03 0.06 0.13 0.21 0.30 0.28 0.33 0.26 0.18 0.17 0.22 0.27 0.17 0.06 0.03 0.00 0.00 0.00
0.05 0.08 0.09 0.11 0.09 0.04 0.01 0.01 0.01 0.02 0.03 0.04 0.03 0.02 0.01 0.01 0.01 0.04 0.04 0.04 0.04 0.05 0.09 0.13 0.18 0.21 0.19 0.14 0.14 0.12 0.13 0.16 0.17 0.09 0.03 0.01 0.00 0.00
0.06 0.05 0.05 0.05 0.02 0.01 0.01 0.02 0.03 0.04 0.05 0.04 0.04 0.03 0.01 0.02 0.02 0.03 0.04 0.05 0.07 0.06 0.03 0.04 0.08 0.10 0.10 0.10 0.11 0.11 0.11 0.11 0.12 0.09 0.03 0.02 0.00 0.00
0.06 0.03 0.02 0.02 0.02 0.02 0.03 0.05 0.06 0.06 0.03 0.03 0.04 0.03 0.05 0.06 0.05 0.03 0.04 0.05 0.06 0.04 0.04 0.05 0.06 0.06 0.06 0.07 0.08 0.10 0.11 0.11 0.12 0.10 0.04 0.02 0.01 0.00
0.02 0.02 0.02 0.03 0.03 0.03 0.04 0.04 0.04 0.02 0.02 0.03 0.06 0.07 0.08 0.06 0.06 0.05 0.05 0.05 0.04 0.03 0.03 0.04 0.06 0.08 0.07 0.06 0.07 0.10 0.09 0.11 0.10 0.11 0.07 0.01 0.00 0.00
0.02 0.04 0.04 0.04 0.05 0.05 0.04 0.03 0.02 0.01 0.01 0.02 0.05 0.06 0.08 0.08 0.06 0.06 0.06 0.06 0.05 0.04 0.02 0.03 0.05 0.07 0.10 0.10 0.09 0.08 0.11 0.10 0.09 0.08 0.07 0.02 0.01 0.02
0.03 0.04 0.04 0.04 0.03 0.02 0.01 0.01 0.01 0.01 0.02 0.04 0.04 0.06 0.07 0.09 0.07 0.07 0.06 0.05 0.05 0.04 0.03 0.02 0.04 0.07 0.08 0.08 0.09 0.10 0.17 0.16 0.13 0.09 0.06 0.04 0.03 0.02
0.07 0.06 0.05 0.04 0.02 0.01 0.01 0.01 0.01 0.00 0.01 0.03 0.04 0.06 0.07 0.09 0.10 0.08 0.07 0.05 0.04 0.04 0.03 0.01 0.02 0.04 0.07 0.09 0.09 0.09 0.15 0.20 0.21 0.12 0.06 0.03 0.02 0.02
0.11 0.08 0.06 0.04 0.02 0.01 0.00 0.01 0.01 0.01 0.02 0.04 0.05 0.07 0.08 0.09 0.09 0.09 0.07 0.05 0.04 0.04 0.03 0.02 0.02 0.03 0.06 0.08 0.10 0.12 0.13 0.16 0.17 0.09 0.09 0.04 0.00 0.00